Location: Newark
(45.9456°N, 15.4064°E)
Time: 21:02:16
(UTC+00:00)

Courier 1B Rocket - Pass Details

Date: 22 January 2020
Orbit: 920 x 1202 km, 28.2° (Epoch: 22 February)

Event Time Altitude Azimuth Distance (km) Brightness Sun altitude
Rises 12:03:01 0° 221° (SW) 3,797 9.1 23.2°
Reaches altitude 10° 12:07:24 10° 196° (SSW) 2,778 9.5 23.0°
Maximum altitude 12:10:25 13° 169° (S) 2,491 8.5 22.9°
Drops below altitude 10° 12:13:22 10° 142° (SE) 2,697 7.9 22.8°
Sets 12:17:29 0° 117° (ESE) 3,598 8.1 22.6°
